Flag for Russia Weather past 2 weeks in Lipetsk, Russia

Now
72 °F

Sunny.


Feels Like: 77 °F
Forecast: 52 / 84 °F
Wind: 6 mph from East

Location: Voronez

Current Time: Jul 23, 2014 at 12:19:17 PM

Latest Report: Jul 23, 2014 at 9:30 AM


Visibility: 10 mi

Pressure: 30.07 "Hg

Humidity: 33%

Dew point: 41 °F

Location of LipetskLocation

Historic Weather in Lipetsk — Graph

°F

Lipetsk temperature yesterday

Maximum temperature yesterday: 81 °F (at 3:30 PM)
Minimum temperature yesterday: 61 °F (at 6:30 AM)
Average temperature yesterday: 70 °F

Past Weeks' High & Low Weather Summary

 TemperatureHumidityPressure
High91 °F (Jul 17, 1:30 PM)88% (Jul 11, 6:30 AM)30.12 "Hg (Jul 11, 6:30 AM)
Low50 °F (Jul 14, 4:30 AM)14% (Jul 14, 12:00 PM)29.80 "Hg (Jul 10, 5:00 AM)
Average72 °F49%29.97 "Hg
* Reported Jul 8 9:00 AM — Jul 23 9:00 AM, Lipetsk, Weather by CustomWeather, © 2014

Note: Actual official high and low records may vary slightly from our data, if they occured in-between our weather recording intervals... More about our weather records

Advertising

Lipetsk weather history for previous 24 hours

 ConditionsComfort  
Time TempWeatherWind HumidityBarometerVisibility
9:00 AM
Jul 23
70 °FSunny.1 mph35%30.07 "Hg10 mi
8:00 AM66 °FSunny.3 mph43%30.07 "Hg10 mi
7:30 AM63 °FSunny.1 mph52%30.04 "Hg10 mi
7:00 AM57 °FSunny.No wind63%30.04 "Hg10 mi
6:30 AM54 °FClear.No wind72%30.04 "Hg10 mi
6:00 AM52 °FClear.No wind72%30.04 "Hg10 mi
5:30 AM52 °FClear.No wind72%30.04 "Hg10 mi
5:00 AM54 °FClear.No wind67%30.04 "Hg10 mi
4:30 AM52 °FClear.No wind72%30.04 "Hg10 mi
3:30 AM59 °FClear.1 mph55%30.04 "Hg10 mi
3:00 AM59 °FClear.1 mph51%30.01 "Hg10 mi
8:30 PM
Jul 22
73 °FSunny.3 mph36%29.95 "Hg10 mi
8:00 PM75 °FSunny.6 mph31%29.95 "Hg10 mi
7:30 PM77 °FSunny.8 mph32%29.95 "Hg10 mi
7:00 PM77 °FSunny.6 mph32%29.95 "Hg10 mi
6:30 PM79 °FSunny.8 mph28%29.92 "Hg10 mi
6:00 PM79 °FSunny.8 mph28%29.92 "Hg10 mi
5:30 PM79 °FSunny.6 mph28%29.92 "Hg10 mi
5:00 PM79 °FSunny.8 mph28%29.92 "Hg10 mi
4:30 PM79 °FSunny.10 mph28%29.92 "Hg10 mi
4:00 PM81 °FPassing clouds.6 mph28%29.92 "HgN/A
3:30 PM81 °FPassing clouds.8 mph28%29.92 "HgN/A
3:00 PM79 °FPassing clouds.8 mph30%29.92 "HgN/A
2:30 PM77 °FSunny.8 mph32%29.92 "Hg10 mi
2:00 PM75 °FPartly sunny.8 mph34%29.92 "Hg6 mi
1:30 PM73 °FSunny.13 mph36%29.92 "Hg10 mi
12:00 PM68 °FSunny.10 mph46%29.92 "Hg10 mi
Weather by CustomWeather, © 2014

See weather overviewHow to use our weather pages